Content
SEND FEEDBACK

Daily
Averages
Monthly
Summary
United States of America

EARTH CITY, MISSOURI


Home > North America > United States > Missouri
Elevation: 476 feet     Latitude: 38 46N     Longitude: 090 30W

WEATHER
 
SELECT A DAY
Number of Records: 201,494;   Date Range: 1/1/95 - 4/17/14
 
SHARE

PRINT THIS DATA

[ ← Previous Day ]
WEATHER ALMANAC - JANUARY 20, 2013
[ Next Day → ]
[ °C ]   °F
Weather ElementAverageHighLow
Temperature31 °F43 °F (1:51 am)25 °F (11:51 pm)
Dewpoint13.5 °F24.1 °F (1:51 am)9 °F (8:51 am)
Humidity48.9 %73 % (4:51 am)38 % (2:51 pm)
Barometer30.32 in30.38 in (9:51 am)30.19 in (1:51 am)
Wind Speed10 mph21.9 mph (1:51 am)
Wind Gust28.8 mph (1:51 am)
Weather ElementAverage
Visibility10 mi
Wind DirectionWSW (253.6 °)

Weather ElementTotal
Precipitation---
Heating Degree Days31 (Base 65)
Averaged from 22 records on January 20, 2013
WEATHER CONDITIONS BREAKOUT
WIND DIRECTION BREAKOUT
WEATHER BY HOUR - JANUARY 20, 2013
[ °C ]   °F
Local TimeTemperatureDewpointHumidityBarometerVisibilityWind DirectionWind SpeedGust SpeedPrecipitationEventsConditions
1:51 AM43.0 °F24.1 °F47 %30.19 in10.0 miNW (320°)21.9 mph28.8 mphClear
2:51 AM39.9 °F23.0 °F51 %30.21 in10.0 miNW (310°)13.8 mph24.2 mphClear
3:51 AM37.0 °F18.0 °F46 %30.23 in10.0 miNW (320°)17.3 mph26.5 mphClear
4:51 AM32.0 °F24.1 °F73 %30.27 in10.0 miNorth (360°)11.5 mphClear
5:51 AM30.0 °F18.0 °F61 %30.30 in10.0 miNNW (340°)8.1 mphClear
6:51 AM28.0 °F12.9 °F53 %30.32 in10.0 miNNW (340°)10.4 mphPartly Cloudy
7:51 AM28.0 °F10.9 °F49 %30.34 in10.0 miNorth (10°)9.2 mphScattered Clouds
8:51 AM28.9 °F9.0 °F43 %30.37 in10.0 miNorth (360°)11.5 mphScattered Clouds
9:51 AM28.9 °F10.0 °F45 %30.38 in10.0 miNNW (340°)10.4 mphMostly Cloudy
11:51 AM32.0 °F10.0 °F40 %30.34 in10.0 miNorth (360°)10.4 mphMostly Cloudy
12:51 PM32.0 °F10.0 °F40 %30.30 in10.0 miNE (40°)6.9 mphMostly Cloudy
1:51 PM33.1 °F10.9 °F40 %30.33 in10.0 miNNW (340°)8.1 mphMostly Cloudy
2:51 PM34.0 °F10.9 °F38 %30.32 in10.0 miNorth (10°)5.8 mphMostly Cloudy
3:51 PM32.0 °F10.0 °F40 %30.33 in10.0 miNorth (360°)4.6 mphMostly Cloudy
4:51 PM30.9 °F10.9 °F43 %30.34 in10.0 miNNE (20°)6.9 mphMostly Cloudy
5:51 PM28.9 °F12.0 °F49 %30.34 in10.0 miNorth (360°)8.1 mphMostly Cloudy
6:51 PM30.0 °F10.9 °F45 %30.33 in10.0 miNorth (10°)8.1 mphOvercast
7:51 PM28.0 °F12.0 °F51 %30.34 in10.0 miNorth (10°)8.1 mphMostly Cloudy
8:51 PM27.0 °F12.0 °F53 %30.34 in10.0 miNorth (360°)10.4 mphOvercast
9:51 PM27.0 °F12.9 °F56 %30.35 in10.0 miNorth (360°)9.2 mphOvercast
10:51 PM26.1 °F12.0 °F55 %30.34 in10.0 miNNW (340°)9.2 mphOvercast
11:51 PM25.0 °F12.0 °F58 %30.34 in10.0 miNW (310°)10.4 mphMostly Cloudy
Hourly data recorded from KSTL, located 7.42 miles away from Earth City, Missouri







STORIES FROM OUR PARTNERS